Eastman, GA

6:51 PM EDT on May 26, 2018 (GMT -0400)
Heart Of Georgia Regional

Weather History for KEZM - February, 2013

Change the Weather History Date:

Thursday, February 21, 2013

  Actual Average Record
Temperature  
Mean Temperature 50 °F -  
Max Temperature 72 °F 65 °F 87 °F (2018)
Min Temperature 30 °F 40 °F 28 °F (2015)
Degree Days  
Heating Degree Days 14    
Moisture  
Dew Point 27 °F    
Average Humidity 52    
Maximum Humidity 98    
Minimum Humidity 9    
Precipitation  
Precipitation 0.00 in - - ()
Sea Level Pressure  
Sea Level Pressure 30.12 in    
Wind  
Wind Speed 2 mph (SE)    
Max Wind Speed 8 mph    
Max Gust Speed -    
Visibility 10 miles    
Events      
Averages and records for this station are not official NWS values.
T = Trace of Precipitation, MM = Missing Value Source: NWS Daily Summary

Daily Weather History Graph

Daily Weather History Graph

Search for Another Location

Airport or City:

Astronomy

Feb. 21, 2013 Rise Set
Actual Time 7:08 AM EST 6:23 PM EST
Civil Twilight 6:43 AM EST 6:48 PM EST
Nautical Twilight 6:15 AM EST 7:17 PM EST
Astronomical Twilight 5:46 AM EST 7:45 PM EST
Moon 2:46 PM EST (2/21) 4:03 AM EST (2/21)
Length of Visible Light 12h 04m
Length of Day
11h 15m
Waxing Gibbous, 83% of the Moon is Illuminated
Feb 21
Waxing Gibbous
Feb 25
Full
Mar 4
Last Quarter
Mar 11
New
Mar 19
First Quarter

Hourly Weather History & Observations

Time (EST) Temp. Dew Point Humidity Pressure Visibility Wind Dir Wind Speed Gust Speed Precip Events Conditions
12:15 AM 36.5 °F 33.6 °F 89% 30.16 in 10.0 mi Calm Calm - N/A   Clear
12:35 AM 34.5 °F 32.0 °F 90% 30.15 in 10.0 mi Calm Calm - N/A   Clear
12:55 AM 35.8 °F 33.1 °F 90% 30.14 in 10.0 mi Calm Calm - N/A   Clear
1:15 AM 33.3 °F 32.0 °F 95% 30.15 in 10.0 mi Calm Calm - N/A   Clear
1:35 AM 34.5 °F 32.9 °F 94% 30.14 in 10.0 mi Calm Calm - N/A   Clear
1:55 AM 34.7 °F 32.9 °F 93% 30.13 in 10.0 mi Calm Calm - N/A   Clear
2:15 AM 32.4 °F 31.5 °F 96% 30.14 in 10.0 mi Calm Calm - N/A   Clear
2:35 AM 31.8 °F 30.9 °F 96% 30.13 in 5.0 mi Calm Calm - N/A   Clear
2:55 AM 32.5 °F 32.0 °F 98% 30.14 in 10.0 mi Calm Calm - N/A   Clear
3:15 AM 32.9 °F 31.8 °F 96% 30.13 in 10.0 mi Calm Calm - N/A   Clear
3:35 AM 32.7 °F 31.6 °F 96% 30.13 in 10.0 mi Calm Calm - N/A   Clear
3:55 AM 32.0 °F 30.7 °F 95% 30.12 in 10.0 mi Calm Calm - N/A   Clear
4:15 AM 32.4 °F 31.8 °F 98% 30.12 in 10.0 mi Calm Calm - N/A   Clear
4:35 AM 31.8 °F 30.7 °F 96% 30.12 in 10.0 mi Calm Calm - N/A   Clear
4:55 AM 32.0 °F 31.1 °F 96% 30.13 in 10.0 mi Calm Calm - N/A   Clear
5:15 AM 32.7 °F 32.0 °F 97% 30.14 in 7.0 mi Calm Calm - N/A   Clear
5:35 AM 31.8 °F 30.9 °F 96% 30.15 in 7.0 mi Calm Calm - N/A   Clear
5:55 AM 32.0 °F 30.9 °F 96% 30.15 in 10.0 mi Calm Calm - N/A   Clear
6:15 AM 32.0 °F 30.7 °F 95% 30.16 in 10.0 mi Calm Calm - N/A   Clear
6:55 AM 30.9 °F 29.8 °F 96% 30.18 in 10.0 mi Calm Calm - N/A   Clear
7:15 AM 32.0 °F 31.1 °F 96% 30.19 in 10.0 mi Calm Calm - N/A   Clear
7:35 AM 32.2 °F 30.9 °F 95% 30.20 in 10.0 mi Calm Calm - N/A   Clear
7:55 AM 32.9 °F 32.0 °F 96% 30.20 in 10.0 mi Calm Calm - N/A   Clear
8:15 AM 35.2 °F 33.3 °F 92% 30.21 in 10.0 mi Calm Calm - N/A   Clear
8:35 AM 37.6 °F 34.3 °F 88% 30.20 in 10.0 mi Calm Calm - N/A   Clear
8:55 AM 40.8 °F 34.5 °F 78% 30.21 in 10.0 mi Calm Calm - N/A   Clear
9:15 AM 43.9 °F 34.0 °F 68% 30.21 in 10.0 mi Calm Calm - N/A   Clear
9:35 AM 48.0 °F 24.3 °F 39% 30.21 in 10.0 mi NNE 4.6 mph - N/A   Clear
9:55 AM 49.8 °F 21.0 °F 32% 30.21 in 10.0 mi NE 3.5 mph - N/A   Clear
10:15 AM 51.4 °F 22.8 °F 33% 30.21 in 10.0 mi East 3.5 mph - N/A   Clear
10:35 AM 52.9 °F 23.0 °F 31% 30.21 in 10.0 mi East 3.5 mph - N/A   Clear
10:55 AM 54.3 °F 20.7 °F 27% 30.21 in 10.0 mi East 3.5 mph - N/A   Clear
11:15 AM 56.8 °F 18.1 °F 22% 30.20 in 10.0 mi Calm Calm - N/A   Clear
11:35 AM 58.6 °F 21.0 °F 23% 30.18 in 10.0 mi East 3.5 mph - N/A   Clear
11:55 AM 60.6 °F 23.7 °F 24% 30.18 in 10.0 mi NE 3.5 mph - N/A   Clear
12:15 PM 62.2 °F 23.9 °F 23% 30.17 in 10.0 mi Calm Calm - N/A   Clear
12:35 PM 64.6 °F 25.7 °F 23% 30.16 in 10.0 mi East 4.6 mph - N/A   Clear
12:55 PM 66.2 °F 24.4 °F 21% 30.15 in 10.0 mi East 5.8 mph - N/A   Clear
1:15 PM 67.1 °F 21.6 °F 18% 30.13 in 10.0 mi Calm Calm - N/A   Clear
1:35 PM 67.8 °F 18.9 °F 15% 30.12 in 10.0 mi East 6.9 mph - N/A   Clear
1:55 PM 69.4 °F 18.0 °F 14% 30.10 in 10.0 mi ESE 3.5 mph - N/A   Clear
2:15 PM 69.6 °F 13.6 °F 12% 30.09 in 10.0 mi SSE 4.6 mph - N/A   Clear
2:35 PM 70.7 °F 13.5 °F 11% 30.09 in 10.0 mi SE 3.5 mph - N/A   Clear
2:55 PM 70.9 °F 9.5 °F 9% 30.08 in 10.0 mi SSE 5.8 mph - N/A   Clear
3:15 PM 71.6 °F 12.6 °F 10% 30.08 in 10.0 mi ESE 6.9 mph - N/A   Clear
3:35 PM 71.8 °F 10.6 °F 9% 30.08 in 10.0 mi SSE 8.1 mph - N/A   Clear
3:55 PM 71.6 °F 12.4 °F 10% 30.07 in 10.0 mi SSW 5.8 mph - N/A   Clear
4:15 PM 71.8 °F 12.9 °F 10% 30.07 in 10.0 mi ESE 8.1 mph - N/A   Clear
4:35 PM 71.6 °F 15.4 °F 12% 30.06 in 10.0 mi South 5.8 mph - N/A   Clear
4:55 PM 70.9 °F 13.5 °F 11% 30.06 in 10.0 mi SSE 6.9 mph - N/A   Clear
5:15 PM 70.0 °F 16.0 °F 13% 30.06 in 10.0 mi SE 4.6 mph - N/A   Clear
5:35 PM 68.7 °F 18.7 °F 15% 30.05 in 10.0 mi SSE 6.9 mph - N/A   Clear
5:55 PM 66.4 °F 21.6 °F 18% 30.05 in 10.0 mi SE 5.8 mph - N/A   Clear
6:15 PM 64.9 °F 21.6 °F 19% 30.05 in 10.0 mi SE 6.9 mph - N/A   Clear
6:35 PM 63.5 °F 23.0 °F 21% 30.05 in 10.0 mi SE 5.8 mph - N/A   Clear
6:55 PM 62.8 °F 23.9 °F 23% 30.06 in 10.0 mi SSE 5.8 mph - N/A   Clear
7:15 PM 62.2 °F 24.8 °F 24% 30.06 in 10.0 mi SSE 5.8 mph - N/A   Clear
7:35 PM 60.1 °F 26.4 °F 28% 30.07 in 10.0 mi Calm Calm - N/A   Clear
7:55 PM 57.7 °F 26.4 °F 30% 30.07 in 10.0 mi Calm Calm - N/A   Clear
8:15 PM 57.0 °F 31.6 °F 38% 30.07 in 10.0 mi Calm Calm - N/A   Clear
8:35 PM 55.8 °F 31.5 °F 40% 30.06 in 10.0 mi SSE 3.5 mph - N/A   Clear
8:55 PM 51.4 °F 32.0 °F 47% 30.07 in 10.0 mi Calm Calm - N/A   Clear
9:15 PM 51.1 °F 34.7 °F 54% 30.07 in 10.0 mi Calm Calm - N/A   Clear
9:35 PM 50.9 °F 34.9 °F 54% 30.07 in 10.0 mi SE 3.5 mph - N/A   Clear
9:55 PM 50.9 °F 35.6 °F 56% 30.07 in 10.0 mi Calm Calm - N/A   Clear
10:15 PM 53.6 °F 33.8 °F 47% 30.08 in 10.0 mi Calm Calm - N/A   Clear
10:35 PM 55.8 °F 32.5 °F 41% 30.08 in 10.0 mi SE 4.6 mph - N/A   Clear
10:55 PM 55.4 °F 34.0 °F 44% 30.08 in 10.0 mi SE 4.6 mph - N/A   Clear
11:15 PM 56.3 °F 36.3 °F 47% 30.08 in 10.0 mi SE 4.6 mph - N/A   Clear
11:35 PM 56.5 °F 38.1 °F 50% 30.08 in 10.0 mi SE 4.6 mph - N/A   Scattered Clouds
11:55 PM 56.7 °F 39.4 °F 52% 30.08 in 10.0 mi SE 3.5 mph - N/A   Mostly Cloudy